Russell, KS

3:09 AM CDT on September 26, 2017 (GMT -0500)
Russell Municipal

Weather History for KRSL - October, 2011

Change the Weather History Date:

Saturday, October 8, 2011

  Actual Average Record
Temperature  
Mean Temperature 66 °F -  
Max Temperature 73 °F 71 °F 96 °F (1991)
Min Temperature 60 °F 44 °F 21 °F (2000)
Cooling Degree Days 2    
Growing Degree Days 16 (Base 50)    
Moisture  
Dew Point 59 °F    
Average Humidity 86    
Maximum Humidity 100    
Minimum Humidity 57    
Precipitation  
Precipitation 0.00 in - - ()
Sea Level Pressure  
Sea Level Pressure 29.96 in    
Wind  
Wind Speed 15 mph (SSE)    
Max Wind Speed 26 mph    
Max Gust Speed 40 mph    
Visibility 9 miles    
Events Rain , Thunderstorm    
Averages and records for this station are not official NWS values.
T = Trace of Precipitation, MM = Missing Value Source: NWS Daily Summary

Daily Weather History Graph

Daily Weather History Graph

Search for Another Location

Airport or City:

Trip Planner

Search our weather history database for the weather conditions in past years. The results will help you decide how hot, cold, wet, or windy it might be!

Date:

Astronomy

Oct. 08, 2011 Rise Set
Actual Time 7:37 AM CDT 7:07 PM CDT
Civil Twilight 7:10 AM CDT 7:34 PM CDT
Nautical Twilight 6:40 AM CDT 8:04 PM CDT
Astronomical Twilight 6:09 AM CDT 8:35 PM CDT
Moon 5:17 PM CDT (10/8) 4:27 AM CDT (10/8)
Length of Visible Light 12h 23m
Length of Day
11h 29m
Waxing Gibbous, 90% of the Moon is Illuminated
Oct 8
Waxing Gibbous
Oct 11
Full
Oct 19
Last Quarter
Oct 26
New
Nov 2
First Quarter

Hourly Weather History & Observations

Time (CDT) Temp. Dew Point Humidity Pressure Visibility Wind Dir Wind Speed Gust Speed Precip Events Conditions
12:53 AM 73.0 °F 60.1 °F 64% 29.81 in 10.0 mi South 19.6 mph 28.8 mph N/A   Clear
1:53 AM 72.0 °F 57.0 °F 59% 29.82 in 10.0 mi South 17.3 mph 29.9 mph N/A   Clear
2:53 AM 72.0 °F 55.9 °F 57% 29.83 in 10.0 mi South 19.6 mph 31.1 mph N/A   Clear
3:53 AM 70.0 °F 54.0 °F 57% 29.81 in 10.0 mi South 15.0 mph 31.1 mph N/A   Partly Cloudy
4:53 AM 70.0 °F 55.0 °F 59% 29.81 in 10.0 mi South 18.4 mph 29.9 mph N/A   Clear
5:53 AM 69.1 °F 55.0 °F 61% 29.85 in 10.0 mi South 13.8 mph 23.0 mph N/A   Clear
6:53 AM 69.1 °F 55.9 °F 63% 29.85 in 10.0 mi South 12.7 mph 29.9 mph N/A   Clear
7:53 AM 68.0 °F 57.2 °F 68% 29.90 in 10.0 mi South 19.6 mph 31.1 mph N/A Rain Light Rain
8:12 AM 64.4 °F 57.2 °F 77% 29.96 in 2.0 mi SW 26.5 mph 40.3 mph 0.00 in Rain , Thunderstorm Heavy Rain
8:20 AM 62.6 °F 60.8 °F 94% 29.97 in 1.8 mi WSW 21.9 mph 32.2 mph N/A Rain , Thunderstorm Rain
8:22 AM 62.6 °F 60.8 °F 94% 29.98 in 3.0 mi WSW 19.6 mph - N/A Rain , Thunderstorm Rain
8:36 AM 62.6 °F 59.0 °F 88% 29.98 in 7.0 mi WNW 4.6 mph - N/A Rain Light Rain
8:53 AM 62.1 °F 59.0 °F 90% 29.95 in 9.0 mi WSW 6.9 mph - N/A Rain Light Rain
9:53 AM 62.1 °F 59.0 °F 90% 29.98 in 10.0 mi Variable 4.6 mph - N/A Rain Light Rain
10:53 AM 61.0 °F 59.0 °F 93% 29.99 in 4.0 mi Variable 5.8 mph - N/A Rain Rain
11:53 AM 61.0 °F 60.1 °F 97% 30.00 in 7.0 mi East 9.2 mph - N/A Rain Light Rain
12:53 PM 62.1 °F 60.1 °F 93% 30.00 in 8.0 mi SSE 13.8 mph 18.4 mph N/A Rain Light Rain
1:53 PM 63.0 °F 60.1 °F 90% 29.96 in 10.0 mi ESE 12.7 mph - N/A   Overcast
2:53 PM 62.1 °F 60.1 °F 93% 29.94 in 6.0 mi ESE 16.1 mph - N/A Rain Rain
3:53 PM 62.1 °F 60.1 °F 93% 29.96 in 9.0 mi SE 20.7 mph 27.6 mph N/A Rain Light Rain
4:53 PM 61.0 °F 60.1 °F 97% 29.88 in 10.0 mi ESE 26.5 mph 34.5 mph N/A Rain Light Rain
5:53 PM 61.0 °F 59.0 °F 93% 29.94 in 10.0 mi SE 20.7 mph 26.5 mph N/A Rain Light Rain
6:29 PM 60.8 °F 59.0 °F 94% 29.98 in 10.0 mi SSE 11.5 mph 23.0 mph N/A   Mostly Cloudy
6:53 PM 61.0 °F 60.1 °F 97% 29.98 in 10.0 mi South 6.9 mph - N/A Rain Light Rain
7:53 PM 60.8 °F 59.0 °F 94% 30.02 in 9.0 mi SSE 13.8 mph 20.7 mph N/A Rain Light Rain
8:00 PM 60.8 °F 59.0 °F 94% 30.02 in 8.0 mi SSE 11.5 mph 20.7 mph N/A Rain Light Rain
8:28 PM 60.8 °F 59.0 °F 94% 30.01 in 9.0 mi SE 15.0 mph - N/A Rain Light Rain
8:38 PM 60.8 °F 59.0 °F 94% 30.03 in 10.0 mi Variable 5.8 mph - N/A Rain Light Rain
8:53 PM 60.8 °F 60.8 °F 100% 30.06 in 10.0 mi SSW 9.2 mph - N/A Rain Light Rain
9:36 PM 60.8 °F 59.0 °F 94% 30.06 in 10.0 mi SSE 5.8 mph - N/A   Overcast
9:49 PM 60.8 °F 59.0 °F 94% 30.06 in 10.0 mi SE 12.7 mph - N/A   Overcast
9:53 PM 60.1 °F 59.0 °F 96% 30.05 in 10.0 mi SE 11.5 mph - N/A   Overcast
10:04 PM 60.8 °F 59.0 °F 94% 30.06 in 10.0 mi SE 12.7 mph - N/A   Overcast
10:53 PM 60.1 °F 59.0 °F 96% 30.05 in 8.0 mi SE 13.8 mph - N/A Rain Rain
11:53 PM 60.1 °F 59.0 °F 96% 30.06 in 10.0 mi SSE 8.1 mph - N/A Rain Light Rain